Regional Weather Roundup
Issued by NWS

Home | Current Version | Previous Version | Text Only | Print | Product List | Glossary On
Versions: 1 2 3 4 5 6 7 8 9 10 11 12 13 14 15 16 17 18 19 20 21 22 23 24 25 26 27 28 29 30 31 32 33 34 35 36 37 38 39 40 41 42 43 44 45 46 47 48 49 50
000
ASUS44 KMEG 230110
RWRTN
TENNESSEE HOURLY STATE WEATHER ROUNDUP
NATIONAL WEATHER SERVICE MEMPHIS TN
800 PM CDT WED MAR 22 2017

TNZ002-004-019-021-049-052-054-088>092-230200-
WEST TENNESSEE

CITY           SKY/WX    TMP DP  RH WIND       PRES   REMARKS
MEMPHIS INTL   PTCLDY    60  28  30 NE8       30.26S
NWS MEMPHIS      N/A     57 N/A N/A MISG        N/A
JACKSON        CLEAR     54  30  40 NE8       30.29S
DYERSBURG      CLEAR     53  30  41 NE9       30.30F
SOMERVILLE     CLEAR     55  32  41 VRB5      30.25S
BOLIVAR        CLEAR     55  27  33 NE7       30.27R
PARIS          CLEAR     45  27  49 NE3       30.33R
HUNTINGDON     PTCLDY    52  27  37 NE8       30.31R
SAVANNAH       CLEAR     55  27  33 NE7       30.27S
$$

TNZ008-025-027-028-033-062-065-066-230200-
NORTH MIDDLE TENNESSEE

CITY           SKY/WX    TMP DP  RH WIND       PRES   REMARKS
NASHVILLE      PTCLDY    49  20  31 N10       30.33S
PORTLAND       CLEAR     45  19  36 NE7       30.35R
CLARKSVILLE    CLEAR     46  20  35 MISG      30.35R
SMYRNA         PTCLDY    49  22  34 N8        30.33S
COOKEVILLE     CLEAR     46  18  31 N5        30.31R
GALLATIN       CLEAR     48  19  32 N9        30.37R
CROSSVILLE     CLEAR     46  15  28 NE7       30.30R
$$

TNZ061-075-076-078-094-096-097-230200-
SOUTH MIDDLE TENNESSEE

CITY           SKY/WX    TMP DP  RH WIND       PRES   REMARKS
FAYETTEVILLE   CLEAR     52  27  37 N8        30.29R
TULLAHOMA      CLEAR     52  16  24 NE6       30.30R
WINCHESTER     CLEAR     48  19  32 N7        30.29R
MCMINNVILLE    CLEAR     46  18  31 NE9       30.30R
COLUMBIA       CLEAR     52  21  30 NE6       30.29S
SHELBYVILLE    CLEAR     50  23  34 N3        30.31R
$$

TNZ017-018-042-046-047-230200-
NORTHEAST TENNESSEE

CITY           SKY/WX    TMP DP  RH WIND       PRES   REMARKS
TRI CITIES     PTCLDY    44  17  33 N7        30.33R
$$

TNZ012-013-036-069-073-074-230200-
CENTRAL EAST TENNESSEE

CITY           SKY/WX    TMP DP  RH WIND       PRES   REMARKS
KNOXVILLE      PTCLDY    51  20  29 N8        30.27R
OAK RIDGE      CLEAR     50  17  27 E3        30.31R
DOWNTOWN KNOXV CLEAR     48  32  53 CALM      30.29R
GATLINBURG     CLEAR     46  21  36 CALM      30.28R
MORRISTOWN     PTCLDY    50  16  25 NE6       30.29R
JACKSBORO      CLEAR     50  14  23 N6        30.34R
$$

TNZ083-085-099-230200-
SOUTHEAST TENNESSEE

CITY           SKY/WX    TMP DP  RH WIND       PRES   REMARKS
CHATTANOOGA    PTCLDY    56  23  27 N5        30.26R
$$

SKY/WX REPORTED AS FAIR MEANS FEW OR NO CLOUDS BELOW
12 THOUSAND FEET.





USA.gov is the U.S. government's official web portal to all federal, state and local government web resources and services.